User: anonymous   Login
Location: Davidschlag
(48.4333°N, 14.2833°E)
Time: 06:32:54
(UTC+00:00)
Language:

Cosmos 2195 Rocket - Orbit

View from above orbital plane
View from above orbital plane
View from above satellite
View from above satellite

Ground track
Ground track

The orbit data is extracted from the following two-line orbital elements,

1 22007U 92036B   20152.51059447 +.00000054 +00000-0 +38418-4 0  9993
2 22007 082.9336 216.5565 0030591 172.3887 187.7742 13.77965687331864
Epoch (UTC): 31 May 2020 12:15:15
Eccentricity: 0.0030591
inclination: 82.9336°
perigee height: 948 km
apogee height: 993 km
right ascension of ascending node: 216.5565°
argument of perigee: 172.3887°
revolutions per day: 13.77965687
mean anomaly at epoch: 187.7742°
orbit number at epoch: 33186

The dashed part of the orbit path shows where the satellite is in the earth's shadow,  

DLR